Regional Weather Roundup
Issued by NWS Cleveland, OH

Home | Current Version | Previous Version | Text Only | Print | Product List | Glossary Off
Versions: 1 2 3 4 5 6 7 8 9 10 11 12 13 14 15 16 17 18 19 20 21 22 23 24 25 26 27 28 29 30 31 32 33 34 35 36 37 38 39 40 41 42 43 44 45 46 47 48 49 50

000
ASUS41 KCLE 210810
RWRCLE
OHIO REGIONAL WEATHER ROUNDUP
NATIONAL WEATHER SERVICE WILMINGTON, OH
400 AM EDT THU SEP 21 2017

NOTE: "FAIR" INDICATES FEW OR NO CLOUDS BELOW 12,000 FEET WITH NO
SIGNIFICANT WEATHER AND/OR OBSTRUCTIONS TO VISIBILITY.

OHZ001>008-015>018-024>027-034-035-043-044-210900-
   NORTHWEST OHIO

CITY           SKY/WX    TMP DP  RH WIND       PRES   REMARKS
DEFIANCE       FAIR      65  64  97 CALM      30.04S FOG
FINDLAY        FAIR      68  64  87 SE3       30.05R
TOLEDO EXPRESS FAIR      65  65 100 CALM      30.04S FOG
TOLEDO EXEC    FAIR      66  64  93 CALM      30.06S FOG
LIMA           FAIR      66  66 100 CALM      30.06R
$$

OHZ009>014-019>023-028>033-038-089-210900-
   NORTHEAST OHIO

CITY           SKY/WX    TMP DP  RH WIND       PRES   REMARKS
CLE-HOPKINS    FAIR      67  62  84 CALM      30.09S
CLE-LAKEFRONT  FAIR      70  63  78 CALM      30.06S
CUY CO. ARPT   NOT AVBL
LORAIN-ELYRIA  FAIR      63  58  83 CALM      30.08S
ASHTABULA      FAIR      60  60 100 CALM      30.10S
AKRON-CANTON   FAIR      67  63  87 CALM      30.09F
WOOSTER        FAIR      58  57  97 CALM      30.10S
MANSFIELD      FAIR      65  64  97 CALM      30.09F
YOUNGSTOWN     FAIR      61  61 100 CALM      30.10R
$$

OHZ042-051>053-060>062-070>072-077>081-210900-
  SOUTHWEST OHIO

CITY           SKY/WX    TMP DP  RH WIND       PRES   REMARKS
CINC-COVINGTON FAIR      67  67 100 S3        30.06S
CINC-LUNKEN    FOG       64  64 100 CALM      30.06F VSB 1/4
HAMILTON       FAIR      63  63 100 CALM      30.06S FOG
DAYTON         FAIR      67  66  97 S3        30.08R FOG
WRIGHT-PAT AFB CLEAR     65  65 100 CALM      30.06S
DAYTON GENERAL FAIR      68  64  87 S3        30.06S
WILMINGTON     FAIR      64  64 100 CALM      30.07S FOG
$$

OHZ036-037-039>041-045>050-054>059-063>069-073>076-082>088-210900-
  CENTRAL AND SOUTHEAST OHIO

CITY           SKY/WX    TMP DP  RH WIND       PRES   REMARKS
COLUMBUS       FAIR      66  66 100 CALM      30.06F
OSU AIRPORT    FOG       64  64 100 E3        30.07S VSB 3/4
BOLTON FIELD     N/A     62  62 100 CALM      30.07F FOG
RICKENBACK AFB FAIR      63  63 100 SE3       30.06F FOG
NEWARK         FOG       62  61  96 CALM      30.07F VSB 1/4
MARION         FAIR      64  62  93 CALM      30.08S FOG
LANCASTER      FOG       61  61 100 CALM      30.08S VSB 1/2
ZANESVILLE     FAIR      63  61  93 CALM      30.08S
NEW PHILLY     FOG       63  63 100 SE3       30.09S VSB 1/4
$$




USA.gov is the U.S. government's official web portal to all federal, state and local government web resources and services.